cover

 

Get it on iTunes StoreListen on Apple Music

Space Journey Records

#Trackname / Key / BPM / Publish dateArtists, Remixers / Label
1 150 bpm, 8A / A minor, 2019-01-28, Psy-Trance,  0  2
2 150 bpm, 11A / F# minor, 2019-01-28, Psy-Trance,  0  2
3 138 bpm, 11A / F# minor, 2019-01-24, Psy-Trance,  0  4
4 140 bpm, 6A / G minor, 2019-01-24, Psy-Trance,  0  4
5 142 bpm, 7B / F major, 2019-01-24, Psy-Trance,  0  4
6 142 bpm, 7B / F major, 2019-01-24, Psy-Trance,  0  4
7 150 bpm, 10A / B minor, 2018-10-12, Psy-Trance,  0  1
8 146 bpm, 5B / Eb major, 2018-10-06, Psy-Trance,  0  10
9 145 bpm, 2B / F# major, 2018-10-06, Psy-Trance,  0  10
10 145 bpm, 2A / Eb minor, 2018-10-06, Psy-Trance,  0  10
11 146 bpm, 9B / G major, 2018-10-06, Psy-Trance,  0  10
12 144 bpm, 1A / Ab minor, 2018-10-06, Psy-Trance,  0  10
13 147 bpm, 4B / Ab major, 2018-10-06, Psy-Trance,  0  10
14 142 bpm, 7B / F major, 2018-10-06, Psy-Trance,  0  10
15 146 bpm, 9B / G major, 2018-10-06, Psy-Trance,  0  10
16 144 bpm, 11A / F# minor, 2018-10-06, Psy-Trance,  0  10
17 144 bpm, 7B / F major, 2018-10-06, Psy-Trance,  0  10
18 140 bpm, 7A / D minor, 2018-08-31, Psy-Trance,  1  1
19 170 bpm, 7B / F major, 2018-06-25, Psy-Trance,  0  2
20 170 bpm, 7B / F major, 2018-06-25, Psy-Trance,  0  2
21 150 bpm, 8B / C major, 2018-06-18, Psy-Trance,  0  2
22 150 bpm, 3A / Bb minor, 2018-06-18, Psy-Trance,  0  2
23 150 bpm, 11A / F# minor, 2018-06-18, Psy-Trance,  0  1
24 138 bpm, 9A / E minor, 2018-03-12, Psy-Trance,  0  2
25 138 bpm, 7A / D minor, 2018-03-12, Psy-Trance,  0  2
26 140 bpm, 9B / G major, 2017-12-30, Psy-Trance,  0  1
27 164 bpm, 8A / A minor, 2017-12-15, Psy-Trance,  0  1
28 138 bpm, 10B / D major, 2017-12-01, Psy-Trance,  2  1
29 148 bpm, 9A / E minor, 2017-11-06, Psy-Trance,  0  2
30 150 bpm, 11B / A major, 2017-11-06, Psy-Trance,  0  2
31 150 bpm, 8A / A minor, 2017-10-16, Psy-Trance,  0  1
32 143 bpm, 6B / Bb major, 2017-10-02, Psy-Trance,  0  2
33 142 bpm, 7B / F major, 2017-10-02, Psy-Trance,  0  2
34 138 bpm, 12B / E major, 2017-09-18, Psy-Trance,  1  1
35 138 bpm, 7B / F major, 2016-10-24, Psy-Trance,  1  1
36 140 bpm, 11B / A major, 2016-09-12, Psy-Trance,  0  1
37 148 bpm, 7B / F major, 2016-09-05, Psy-Trance,  1  1
38 142 bpm, 10B / D major, 2016-08-29, Psy-Trance,  0  1
39 140 bpm, 8A / A minor, 2016-06-27, Psy-Trance,  0  1
40 140 bpm, 11B / A major, 2016-05-30, Psy-Trance,  0  1
41 142 bpm, 8A / A minor, 2016-03-28, Psy-Trance,  0  1
42 150 bpm, 11A / F# minor, 2016-03-21, Psy-Trance,  0  1
43 147 bpm, 6B / Bb major, 2016-02-13, Psy-Trance,  0  3
44 140 bpm, 8A / A minor, 2016-02-13, Psy-Trance,  0  3
45 138 bpm, 6B / Bb major, 2016-02-13, Psy-Trance,  0  3
46 142 bpm, 11B / A major, 2016-01-30, Psy-Trance,  0  2
47 140 bpm, 7A / D minor, 2016-01-30, Psy-Trance,  0  2
48 150 bpm, 11A / F# minor, 2015-12-07, Psy-Trance,  0  2
49 150 bpm, 3A / Bb minor, 2015-12-07, Psy-Trance,  0  2
50 140 bpm, 6A / G minor, 2015-11-30, Psy-Trance,  0  2
51 140 bpm, 7B / F major, 2015-11-30, Psy-Trance,  0  2
52 149 bpm, 7B / F major, 2015-09-08, Psy-Trance,  0  2
53 99 bpm, 9B / G major, 2015-09-08, Psy-Trance,  0  2
54 140 bpm, 7B / F major, 2015-08-25, Trance,  0  2
55 140 bpm, 7B / F major, 2015-08-25, Trance,  0  2
×

Sign in

Sign in to access your personalized pages, follow artists and labels you love, and create playlists fromyour favorite tracks.

Please wait...